Location: Biharia
(46.4333°N, 22.8000°E)
Time: 23:42:47
(UTC+00:00)

Cosmos 2263 Rocket - Pass Details

Date: 16 October 2021
Orbit: 825 x 847 km, 71.0° (Epoch: 26 November)

Event Time Altitude Azimuth Distance (km) Brightness Sun altitude
Rises 17:19:47 0° 334° (NNW) 3,376 5.8 -17.9°
Reaches altitude 10° 17:22:14 10° 336° (NNW) 2,438 5.0 -18.3°
Maximum altitude 17:27:49 74° 62° (ENE) 861 2.0 -19.3°
Enters shadow 17:31:07 25° 143° (SE) 1,598 3.3 -19.8°
